Flag for Paraguay Weather past 2 weeks in Asuncion, Paraguay

68 °F

Passing clouds.

Feels Like: 68 °F
Forecast: 66 / 80 °F
Wind: 6 mph from South

Location: Asuncion / Aeropuerto

Current Time: Nov 30, 2015 at 12:17:35 AM

Latest Report: Nov 30, 2015 at 12:00 AM

Visibility: N/A

Pressure: 29.98 "Hg

Humidity: 78%

Dew point: 61 °F

Location of AsuncionLocation

Historic Weather in Asuncion — Graph


Asuncion temperature yesterday

Maximum temperature yesterday: 75 °F (at 3:00 PM)
Minimum temperature yesterday: 68 °F (at 9:30 AM)
Average temperature yesterday: 72 °F

Past Weeks' High & Low Weather Summary

High95 °F (Nov 15, 3:00 PM)100% (Nov 16, 9:00 AM)32.69 "Hg (Nov 16, 9:00 AM)
Low57 °F (Nov 21, 5:00 AM)43% (Nov 22, 12:00 PM)29.47 "Hg (Nov 19, 4:00 PM)
Average78 °F77%29.74 "Hg
* Reported Nov 14 11:00 PM — Nov 29 11:00 PM, Asuncion, Weather by CustomWeather, © 2015

Note: Actual official high and low records may vary slightly from our data, if they occured in-between our weather recording intervals... More about our weather records


Asuncion weather history for previous 24 hours

Time TempWeatherWind HumidityBarometerVisibility
11:00 PM
Sun, Nov 29
70 °FPassing clouds.7 mph73%29.98 "HgN/A
10:00 PM70 °FPassing clouds.7 mph73%29.95 "HgN/A
9:00 PM70 °FPassing clouds.3 mph78%29.95 "HgN/A
8:00 PM72 °FPartly cloudy.5 mph73%29.92 "HgN/A
7:00 PM73 °FPartly sunny.5 mph74%29.92 "HgN/A
6:00 PM75 °FPartly sunny.5 mph74%29.92 "HgN/A
5:00 PM73 °FLight rain. Partly sunny.3 mph78%29.92 "HgN/A
4:00 PM75 °FBroken clouds.2 mph69%29.95 "HgN/A
3:00 PM75 °FPartly sunny.7 mph69%29.95 "HgN/A
2:00 PM73 °FLight rain. Mostly cloudy.5 mph74%29.98 "HgN/A
1:00 PM73 °FMostly cloudy.7 mph69%29.98 "HgN/A
12:00 PM72 °FLight rain. Mostly cloudy.6 mph73%29.98 "HgN/A
11:00 AM72 °FLight rain. Mostly cloudy.5 mph69%29.98 "HgN/A
10:30 AM72 °FMostly cloudy.8 mph69%29.98 "HgN/A
10:00 AM70 °FLight rain. Mostly cloudy.8 mph69%29.98 "HgN/A
9:30 AM68 °FLight rain. Partly sunny.10 mph73%29.98 "HgN/A
9:00 AM70 °FLight rain. Mostly cloudy.10 mph73%29.98 "HgN/A
8:30 AM70 °FPartly sunny.9 mph73%29.98 "HgN/A
8:00 AM70 °FThunderstorms. Partly sunny.8 mph73%29.95 "HgN/A
7:00 AM70 °FThunderstorms. Partly sunny.3 mph73%29.95 "HgN/A
6:00 AM70 °FThunderstorms. Partly sunny.15 mph73%29.89 "HgN/A
5:00 AM70 °FThunderstorms. Passing clouds.13 mph73%29.89 "HgN/A
3:00 AM72 °FThunderstorms. Passing clouds.12 mph73%29.89 "HgN/A
2:00 AM72 °FPassing clouds.9 mph78%29.89 "HgN/A
1:00 AM73 °FPassing clouds.9 mph74%29.92 "HgN/A
12:00 AM73 °FPassing clouds.7 mph74%29.92 "HgN/A
Weather by CustomWeather, © 2015

See weather overviewHow to use our weather pages